CAPE
5 4 5 5 4 3 3 3 2 2 2 2 0 0 0 0 0 0 0 0 0 0 0 0 0 0 0 0 0 0 0 0 0 0 0 0 0 0 0 0 0 0 0 0 0 0 0 0 78 199 19 30 69 132
5 5 5 3 3 4 4 3 2 2 2 3 1 0 0 0 0 0 0 0 0 0 0 0 0 0 0 0 0 0 0 0 0 0 0 0 0 0 0 0 0 0 0 0 0 0 0 1 0 0 1 8 4 79
3 2 2 3 3 3 2 2 2 1 2 1 1 0 0 0 0 0 0 0 0 0 0 0 0 0 0 0 0 0 0 0 0 0 0 0 0 0 0 0 0 0 0 0 0 0 0 1 0 0 0 1 1 91
2 3 4 3 2 2 2 2 2 2 2 1 1 0 0 0 0 0 0 0 0 0 0 0 0 0 0 0 0 0 0 0 0 0 0 0 0 0 0 0 0 0 0 1 0 2 3 0 0 0 0 0 1 76
3 3 2 2 2 2 2 2 2 2 2 2 0 0 0 0 0 0 0 0 0 0 0 0 0 0 0 0 0 0 0 0 0 0 0 0 0 0 0 0 0 0 0 0 2 0 0 0 0 0 0 0 0 9
4 2 2 2 2 2 2 2 2 3 2 0 0 0 0 0 0 0 0 0 0 0 0 0 0 0 0 0 0 0 0 0 0 0 0 0 0 0 0 0 0 0 0 0 0 0 0 0 0 0 0 0 0 11
3 2 2 2 1 1 2 1 2 0 0 0 0 0 0 0 0 0 0 0 0 0 0 0 0 0 0 0 0 0 0 0 0 0 0 0 0 0 0 0 0 0 0 0 0 0 0 0 0 0 0 0 1 13
2 2 2 1 1 1 1 0 0 0 0 0 0 0 0 0 0 0 0 0 0 0 0 0 0 0 0 0 0 0 0 0 0 0 0 0 0 0 0 0 0 0 0 0 0 0 0 0 0 0 0 0 2 36
1 1 1 1 1 0 0 0 0 0 0 0 0 0 0 0 0 0 0 0 0 0 0 0 0 0 0 0 0 0 0 0 0 0 0 0 0 0 0 0 0 0 0 0 0 0 0 0 2 0 0 1 0 0
1 1 1 1 0 0 0 0 0 0 0 0 0 0 0 0 0 0 0 0 0 0 0 0 0 0 0 0 0 0 0 0 0 1 0 0 0 0 0 0 0 0 0 0 2 0 15 12 2 0 0 2 3 0
1 1 0 0 0 0 0 0 0 0 0 0 0 0 0 0 0 0 0 0 0 0 0 0 0 0 0 0 0 0 0 0 0 0 5 0 0 0 0 0 0 0 0 1 1 1 1 0 0 0 1 6 11 9
0 0 0 0 0 0 0 0 0 0 0 0 0 0 0 0 0 0 0 0 0 0 0 0 0 0 0 0 0 0 0 0 1 0 1 1 0 0 0 0 0 0 0 1 1 0 0 0 0 0 11 25 15 1
0 0 0 0 0 0 0 0 0 0 0 0 0 0 2 1 1 0 1 0 0 0 0 0 0 0 0 4 13 6 6 2 0 2 2 0 0 0 0 0 0 0 2 2 1 0 0 2 0 2 24 17 2 0
0 0 0 0 0 0 0 0 0 0 0 14 6 0 0 0 0 0 0 0 0 0 0 0 0 6 10 18 19 13 0 1 2 4 0 0 0 0 0 0 0 0 0 0 1 3 0 1 2 1 0 0 0 0
0 0 0 0 0 0 0 0 0 0 3 4 2 2 1 3 15 2 5 9 13 10 25 21 11 15 8 12 2 0 3 1 1 0 0 0 0 0 0 0 0 0 0 0 0 0 6 1 0 1 1 0 0 0
0 0 0 0 0 0 0 0 0 0 4 13 0 1 0 5 2 0 2 2 0 1 4 21 7 4 4 5 2 2 2 0 0 0 0 0 0 0 0 0 0 0 0 0 0 0 2 5 0 7 0 1 3 2
0 0 0 0 0 0 0 0 0 0 0 0 1 0 0 4 4 3 2 0 1 0 1 2 2 0 4 1 0 0 1 0 0 0 0 0 0 0 0 0 0 0 0 0 0 0 0 2 0 0 0 4 6 9
0 0 0 0 0 0 0 0 1 0 2 0 2 1 0 0 0 0 0 1 2 0 1 1 5 0 0 0 1 3 3 1 1 0 0 0 0 0 0 0 0 0 0 0 0 0 0 0 0 0 6 2 3 3
0 0 0 0 0 0 1 1 5 1 0 2 11 3 3 0 0 0 0 0 10 2 0 3 0 0 0 0 1 1 3 1 1 2 1 0 0 0 0 0 0 0 0 0 0 0 0 0 0 0 0 7 11 2
1 0 0 0 0 0 0 0 9 1 9 5 17 12 0 0 0 0 1 3 0 0 0 2 0 0 0 0 0 0 0 0 1 0 0 0 0 0 11 10 0 0 0 0 0 0 0 0 0 0 0 5 19 19
0 0 0 0 0 0 2 0 0 0 0 2 17 9 0 0 0 0 0 0 0 0 0 0 0 0 0 0 0 0 3 8 0 0 0 1 2 14 8 1 0 1 0 0 0 0 0 0 0 0 0 0 0 0
0 0 0 0 0 2 6 0 1 0 0 0 7 1 0 2 0 0 0 0 0 0 0 0 0 0 0 0 0 0 0 0 0 0 0 0 0 0 0 0 0 0 0 0 0 0 0 0 0 0 0 0 0 0
0 0 0 0 0 0 0 0 1 0 0 0 0 0 0 0 0 0 0 0 0 0 0 0 0 0 0 0 0 0 0 0 0 0 0 0 0 0 0 0 0 0 0 0 0 0 0 0 0 0 0 0 0 1
0 0 1 2 0 0 1 7 2 0 0 0 0 0 0 0 0 0 0 0 0 0 0 0 0 0 0 0 0 0 0 0 0 0 0 0 0 0 0 0 0 0 0 0 0 0 0 0 0 0 0 0 0 0
1 0 0 0 1 0 15 25 23 9 5 0 0 0 0 0 0 0 0 0 0 0 0 0 0 0 0 0 0 0 0 0 0 0 0 0 0 0 0 0 0 0 0 0 0 0 0 0 0 1 0 0 0 0
0 0 0 0 2 8 7 15 22 19 0 0 0 0 0 0 0 0 0 0 0 0 0 0 0 0 0 0 0 0 0 0 0 0 0 0 0 0 0 0 0 0 0 0 0 0 0 0 0 0 0 0 0 0
0 24 24 0 39 76 99 38 5 7 0 1 0 0 0 1 5 0 0 0 0 0 0 0 0 0 0 0 0 0 0 0 0 0 0 0 0 0 0 0 0 0 0 0 0 0 0 0 0 0 0 0 0 0
0 68 1 0 0 0 0 0 0 0 0 0 0 0 0 0 2 0 0 0 0 0 0 0 0 0 0 0 0 0 0 0 0 0 0 0 0 0 0 0 0 0 0 0 0 0 0 0 0 0 0 0 0 0
1 77 0 0 0 0 0 0 0 0 0 0 0 0 0 0 0 0 0 0 0 0 0 0 0 0 0 0 0 0 0 0 0 0 0 0 0 0 0 0 0 0 0 0 0 0 0 0 0 0 0 0 0 0
9 0 0 0 0 0 0 0 0 0 0 0 0 0 0 0 0 0 0 0 0 0 0 0 0 0 0 0 0 0 0 0 0 0 0 0 0 0 0 0 0 0 0 0 0 0 0 0 0 0 0 0 0 0
0 0 0 0 0 0 0 0 0 0 0 0 0 0 0 0 0 0 0 0 0 0 0 0 0 0 0 0 0 0 0 0 0 0 0 0 0 0 0 0 0 0 0 0 0 0 0 0 0 0 0 0 0 0
0 0 0 0 0 0 0 0 0 0 0 0 0 0 0 0 0 0 0 0 0 0 0 0 0 0 0 0 0 0 0 0 0 0 0 0 0 0 0 0 0 0 0 0 0 0 0 0 0 0 0 0 0 0
0 0 0 0 0 0 0 0 0 0 0 0 0 0 0 0 0 0 0 0 0 0 0 0 0 0 0 0 0 0 0 0 0 0 0 0 0 0 0 0 0 0 0 0 0 0 0 0 0 0 0 0 0 0
CIN
-0 -0 -0 -0 -0 -0 -0 -0 -0 -0 -0 -0 -0 -0 -0 -0 -0 -0 -0 -0 -0 -0 -0 -0 -0 -0 -0 -0 -0 -0 -0 -0 -0 -0 -0 -0 -0 -0 -0 -0 -0 -0 -0 -0 -0 -0 -0 -0 -186 -76 -70 -225 -226 -147
-0 -0 -0 -0 -0 -0 -0 -0 -0 -0 -0 -0 -0 -0 -0 -0 -0 -0 -0 -0 -0 -0 -0 -0 -0 -0 -0 -0 -0 -0 -0 -0 -0 -0 -0 -0 -0 -0 -0 -0 -0 -0 -1 -0 -0 -0 -1 -0 -0 -0 -0 -214 -293 -153
-0 -0 -0 -0 -0 -0 -0 -0 -0 -0 -0 -0 -0 -0 -0 -0 -0 -0 -0 -0 -0 -0 -0 -0 -0 -0 -0 -0 -0 -0 -0 -0 -0 -0 -0 -0 -0 -0 -0 -0 -0 -0 -0 -0 -1 -0 -0 -0 -0 -0 -0 -0 -0 -127
-0 -0 -0 -0 -0 -0 -0 -0 -0 -0 -0 -0 -0 -0 -0 -0 -0 -0 -0 -0 -0 -0 -0 -0 -0 -0 -0 -0 -0 -0 -0 -0 -0 -0 -0 -0 -0 -0 -0 -0 -0 -0 -0 -0 -0 -9 -20 -0 -0 -0 -0 -0 -33 -103
-0 -0 -0 -0 -0 -0 -0 -0 -0 -0 -0 -0 -0 -0 -0 -0 -0 -0 -0 -0 -0 -0 -0 -0 -0 -0 -0 -0 -0 -0 -0 -0 -0 -0 -0 -0 -0 -0 -0 -0 -0 -0 -0 -0 -7 -0 -0 -0 -0 -0 -0 -0 -0 -116
-0 -0 -0 -0 -0 -0 -0 -0 -0 -0 -0 -1 -0 -0 -0 -0 -0 -0 -0 -0 -0 -0 -0 -0 -0 -0 -0 -0 -0 -0 -0 -0 -0 -0 -0 -0 -0 -0 -0 -0 -0 -0 -0 -0 -0 -0 -0 -0 -0 -0 -0 -0 -0 -116
-0 -0 -0 -0 -0 -0 -0 -0 -0 -0 -0 -0 -0 -0 -0 -0 -0 -0 -0 -0 -0 -0 -0 -0 -0 -0 -0 -0 -0 -0 -0 -0 -0 -0 -0 -0 -0 -0 -0 -0 -0 -0 -0 -0 -0 -0 -0 -0 -0 -0 -0 -0 -19 -139
-0 -0 -0 -0 -0 -0 -0 -0 -0 -0 -0 -0 -0 -0 -0 -0 -0 -0 -0 -0 -0 -0 -0 -0 -0 -0 -0 -0 -0 -0 -0 -0 -0 -0 -0 -0 -0 -0 -0 -0 -0 -0 -0 -0 -0 -0 -0 -0 -0 -0 -0 -0 -91 -73
-0 -0 -0 -0 -0 -0 -0 -0 -0 -0 -0 -0 -0 -0 -0 -0 -0 -0 -0 -0 -0 -0 -0 -0 -0 -0 -0 -0 -0 -0 -0 -0 -0 -0 -0 -0 -0 -0 -0 -0 -0 -0 -0 -0 -0 -0 -0 -0 -7 -0 -0 -3 -0 -0
-0 -0 -0 -0 -0 -0 -0 -0 -0 -0 -0 -0 -0 -0 -0 -0 -0 -0 -0 -0 -0 -0 -0 -0 -0 -0 -0 -0 -0 -0 -0 -0 -0 -10 -0 -0 -0 -0 -0 -0 -0 -0 -0 -0 -0 -0 -3 -5 -12 -0 -0 -16 -18 -0
-0 -0 -0 -0 -0 -0 -0 -0 -0 -0 -0 -0 -0 -0 -0 -0 -0 -0 -0 -0 -0 -0 -0 -0 -0 -0 -0 -0 -0 -0 -5 -22 -0 -0 -4 -1 -0 -0 -0 -0 -0 -0 -0 -2 -1 -5 -0 -0 -0 -0 -40 -24 -26 -26
-0 -0 -0 -0 -0 -0 -0 -0 -0 -0 -0 -0 -0 -0 -0 -0 -0 -0 -0 -0 -0 -0 -0 -0 -0 -0 -0 -0 -0 -0 -0 -0 -1 -0 -3 -2 -0 -0 -0 -0 -0 -0 -0 -2 -3 -0 -0 -0 -0 -8 -26 -17 -25 -56
-0 -0 -0 -0 -0 -0 -0 -0 -0 -0 -0 -0 -20 -0 -31 -26 -6 -0 -1 -0 -0 -0 -0 -0 -0 -0 -0 -29 -20 -33 -10 -4 -0 -2 -4 -0 -0 -0 -0 -0 -0 -0 -3 -5 -0 -0 -0 -0 -0 -28 -18 -30 -50 -0
-0 -0 -0 -0 -0 -0 -0 -0 -0 -0 -31 -2 -19 -0 -0 -0 -0 -0 -0 -0 -0 -0 -2 -1 -0 -19 -64 -13 -16 -7 -0 -12 -2 -0 -5 -0 -0 -0 -0 -0 -0 -0 -0 -0 -3 -0 -0 -0 -0 -0 -0 -0 -0 -0
-0 -0 -0 -0 -0 -0 -0 -0 -0 -0 -60 -10 -11 -1 -5 -4 -1 -1 -9 -1 -0 -0 -0 -5 -9 -24 -32 -23 -46 -0 -0 -2 -1 -0 -0 -0 -0 -0 -0 -0 -0 -0 -0 -0 -0 -2 -0 -2 -0 -0 -0 -0 -0 -0
-0 -0 -0 -0 -0 -0 -0 -0 -0 -73 -32 -7 -0 -1 -1 -0 -2 -0 -4 -0 -0 -0 -2 -0 -0 -2 -2 -4 -0 -0 -1 -0 -0 -0 -0 -0 -0 -0 -0 -0 -0 -0 -0 -0 -0 -2 -7 -1 -0 -2 -8 -4 -8 -7
-0 -0 -0 -0 -0 -0 -0 -0 -27 -34 -0 -0 -0 -0 -0 -1 -0 -3 -3 -1 -1 -0 -1 -0 -0 -0 -0 -0 -0 -0 -0 -0 -0 -0 -0 -0 -0 -0 -0 -0 -0 -0 -0 -0 -0 -0 -2 -21 -0 -0 -0 -3 -5 -5
-0 -0 -0 -0 -0 -0 -0 -0 -30 -2 -2 -0 -5 -13 -0 -0 -0 -0 -0 -8 -0 -0 -0 -0 -0 -0 -0 -0 -0 -0 -1 -2 -0 -0 -0 -0 -0 -0 -0 -0 -0 -0 -0 -0 -0 -0 -0 -0 -0 -0 -7 -6 -2 -6
-1 -0 -0 -0 -0 -0 -36 -40 -37 -11 -30 -22 -40 -44 -48 -0 -0 -0 -0 -0 -10 -3 -1 -0 -0 -0 -0 -0 -0 -0 -0 -1 -2 -7 -13 -8 -9 -0 -0 -0 -0 -0 -0 -0 -0 -0 -0 -0 -0 -0 -11 -34 -40 -17
-3 -0 -0 -0 -0 -0 -0 -0 -46 -32 -15 -36 -48 -29 -0 -0 -0 -0 -32 -5 -0 -0 -0 -0 -0 -0 -0 -0 -0 -7 -0 -0 -5 -1 -2 -0 -0 -3 -6 -23 -0 -0 -0 -0 -0 -0 -0 -0 -0 -0 -0 -42 -41 -45
-0 -0 -0 -0 -0 -14 -16 -0 -0 -0 -0 -7 -46 -39 -24 -0 -0 -0 -0 -0 -0 -0 -0 -0 -0 -0 -0 -0 -0 -0 -31 -27 -0 -0 -0 -12 -25 -28 -30 -12 -0 -52 -0 -0 -0 -0 -0 -0 -0 -0 -0 -0 -0 -0
-0 -0 -0 -0 -0 -15 -12 -2 -8 -0 -0 -0 -38 -38 -20 -12 -0 -0 -0 -0 -0 -0 -0 -0 -0 -0 -0 -0 -0 -0 -0 -0 -0 -0 -0 -0 -0 -0 -0 -0 -0 -0 -0 -0 -0 -0 -0 -0 -0 -0 -0 -0 -0 -0
-0 -0 -0 -0 -1 -8 -0 -0 -6 -12 -0 -0 -0 -0 -0 -0 -5 -0 -0 -0 -0 -0 -0 -0 -0 -0 -0 -0 -0 -0 -0 -0 -0 -0 -0 -0 -0 -0 -0 -0 -0 -0 -0 -0 -0 -0 -0 -0 -0 -0 -0 -0 -3 -23
-0 -0 -1 -2 -1 -0 -55 -41 -50 -0 -0 -0 -0 -0 -0 -0 -0 -0 -0 -0 -0 -0 -0 -0 -0 -0 -0 -0 -0 -0 -0 -0 -0 -0 -0 -0 -0 -0 -0 -0 -0 -0 -0 -0 -0 -0 -0 -0 -0 -0 -0 -0 -0 -0
-0 -0 -0 -0 -0 -3 -58 -76 -73 -57 -49 -0 -0 -0 -0 -0 -0 -0 -0 -0 -0 -0 -0 -0 -0 -0 -0 -0 -0 -0 -0 -0 -0 -0 -0 -0 -0 -0 -0 -0 -0 -0 -0 -0 -0 -0 -0 -0 -2 -27 -9 -0 -0 -0
-0 -0 -0 -0 -78 -51 -60 -40 -46 -50 -0 -0 -0 -0 -0 -0 -0 -0 -0 -0 -0 -0 -0 -0 -0 -0 -0 -0 -0 -0 -0 -0 -0 -0 -0 -0 -0 -0 -0 -0 -0 -0 -0 -0 -0 -0 -0 -0 -0 -0 -0 -0 -0 -0
-0 -61 -58 -0 -118 -87 -55 -69 -127 -59 -0 -27 -0 -0 -0 -26 -69 -0 -0 -0 -0 -0 -0 -0 -0 -0 -0 -0 -0 -0 -0 -0 -0 -0 -0 -0 -0 -0 -0 -0 -0 -0 -0 -0 -0 -0 -0 -0 -0 -0 -0 -0 -0 -0
-0 -94 -1 -0 -0 -0 -0 -0 -6 -0 -0 -0 -0 -0 -0 -2 -29 -0 -0 -0 -0 -0 -0 -0 -0 -0 -0 -0 -0 -0 -0 -0 -0 -0 -0 -0 -0 -0 -0 -0 -0 -0 -0 -0 -0 -0 -0 -0 -0 -0 -0 -0 -0 -0
-41 -96 -0 -0 -0 -0 -0 -0 -0 -0 -0 -0 -0 -0 -0 -0 -0 -0 -0 -0 -0 -0 -0 -0 -0 -0 -0 -0 -0 -0 -0 -0 -0 -0 -0 -0 -0 -0 -0 -0 -0 -0 -0 -0 -0 -0 -0 -0 -0 -0 -0 -0 -0 -0
-41 -0 -0 -0 -0 -0 -0 -0 -0 -0 -0 -0 -0 -0 -0 -0 -0 -0 -0 -0 -0 -0 -0 -0 -0 -0 -0 -0 -0 -0 -0 -0 -0 -0 -0 -0 -0 -0 -0 -0 -0 -0 -0 -0 -0 -0 -0 -0 -0 -0 -0 -0 -0 -0
-0 -0 -0 -0 -0 -0 -0 -0 -0 -0 -0 -0 -0 -0 -0 -0 -0 -0 -0 -0 -0 -0 -0 -0 -0 -0 -0 -0 -0 -0 -0 -0 -0 -0 -0 -0 -0 -0 -0 -0 -0 -0 -0 -0 -0 -0 -0 -0 -0 -0 -0 -0 -0 -0
-0 -0 -0 -0 -0 -0 -0 -0 -0 -0 -0 -0 -0 -0 -0 -0 -0 -0 -0 -0 -0 -0 -0 -0 -0 -0 -0 -0 -0 -0 -0 -0 -0 -0 -0 -0 -0 -0 -0 -0 -0 -0 -0 -0 -0 -0 -0 -0 -0 -0 -0 -0 -0 -0
-0 -0 -0 -0 -0 -0 -0 -0 -0 -0 -0 -0 -0 -0 -0 -0 -0 -0 -0 -0 -0 -0 -0 -0 -0 -0 -0 -0 -0 -0 -0 -0 -0 -0 -0 -0 -0 -0 -0 -0 -0 -0 -0 -0 -0 -0 -0 -0 -0 -0 -0 -0 -0 -0
Wind_Speed
35 34 34 33 32 31 29 27 27 26 24 18 8 7 5 5 5 7 9 6 6 8 8 9 9 7 9 9 9 9 12 14 15 14 13 12 14 13 15 17 20 24 26 30 30 33 36 24 22 24 25 23 20 18
37 36 35 34 35 34 32 28 26 24 18 12 5 3 2 3 5 6 7 8 7 6 7 13 12 13 13 8 7 9 11 11 11 13 11 13 14 15 15 17 19 19 19 24 28 30 23 20 17 19 21 20 21 18
37 36 36 36 36 35 32 29 26 20 16 6 2 3 4 4 5 6 7 6 7 7 12 10 10 15 14 12 9 9 13 10 10 13 12 13 14 13 13 13 17 20 19 21 25 25 24 23 22 18 18 20 21 16
38 37 38 37 35 32 29 26 24 19 7 2 4 6 5 4 5 6 6 9 13 10 10 11 15 13 16 13 13 14 8 10 10 12 13 14 14 12 15 17 15 14 17 23 14 15 24 26 22 21 21 19 18 17
34 36 36 36 32 29 25 22 20 7 3 4 7 6 5 4 5 5 7 13 14 13 11 6 12 14 13 13 13 12 9 8 9 11 12 12 14 16 15 16 14 12 14 15 10 18 24 28 25 24 23 21 21 18
32 37 32 29 29 25 21 24 7 5 10 10 8 6 5 3 4 7 8 16 15 14 11 7 16 12 10 11 13 13 12 12 12 11 11 13 14 14 15 15 12 11 13 18 16 23 27 30 28 24 21 25 20 17
32 30 27 19 22 19 14 10 11 15 12 9 8 7 4 4 6 8 12 15 16 15 16 11 14 15 5 10 12 12 12 13 12 12 12 12 12 12 13 12 12 10 18 22 25 25 28 25 25 25 25 22 20 17
30 27 21 20 13 12 17 19 17 14 11 9 7 6 5 5 7 13 14 15 15 14 16 13 15 12 7 10 10 13 11 13 14 11 11 12 12 11 9 10 10 10 22 21 23 29 31 27 26 24 24 23 22 20
18 15 14 15 15 19 17 16 15 14 11 8 7 5 9 13 13 13 16 14 13 14 16 16 3 5 6 12 12 12 12 11 11 9 9 11 10 9 10 10 10 9 24 26 25 25 23 27 29 25 24 23 23 23
17 18 17 20 20 18 18 16 14 12 10 6 10 12 12 13 14 14 15 16 17 19 16 20 12 9 3 7 8 10 13 10 9 9 11 8 7 9 10 11 11 7 15 21 17 17 20 16 20 25 26 23 24 25
18 18 22 20 19 17 14 12 13 14 7 12 12 12 12 14 13 14 14 15 16 18 17 19 12 7 8 3 6 9 10 10 11 8 8 10 9 8 11 13 14 13 16 17 14 13 14 16 19 21 23 23 23 25
20 20 19 18 16 17 17 16 5 9 12 12 12 11 12 13 13 13 14 15 16 17 16 16 16 11 7 7 10 9 12 12 13 8 10 13 11 9 11 14 18 21 20 18 16 15 15 16 18 19 22 20 20 20
18 16 18 18 18 19 18 12 12 12 14 13 14 13 13 14 13 12 12 15 16 15 16 15 13 8 9 9 11 12 13 14 11 10 12 11 9 10 10 13 17 20 21 20 19 17 18 16 15 14 16 15 15 15
12 17 17 17 18 20 17 14 14 14 15 16 15 14 13 13 14 13 15 17 18 15 18 16 13 9 11 11 12 12 14 11 11 13 12 9 5 11 10 10 14 17 19 21 22 20 18 18 14 13 11 10 9 10
16 16 17 17 17 17 15 16 17 17 17 16 16 15 14 16 17 19 21 22 22 22 17 16 15 14 12 11 11 12 11 12 13 15 14 7 11 12 10 8 10 13 15 17 20 22 21 19 17 14 11 8 7 8
18 17 16 16 16 14 14 17 16 17 17 18 17 17 21 17 20 22 23 24 25 27 21 19 13 17 16 11 11 11 11 14 17 14 13 5 9 9 9 8 8 9 11 14 16 18 20 20 20 14 11 11 9 8
17 16 16 17 16 15 17 17 17 18 18 18 19 19 20 19 21 22 22 23 24 22 19 18 19 12 13 14 12 12 15 14 15 13 6 6 7 7 6 5 5 8 10 11 12 13 15 16 16 17 16 10 9 11
17 17 18 18 17 17 16 17 17 17 18 18 19 19 20 20 22 22 20 21 23 18 16 15 15 13 13 13 10 10 12 11 10 7 5 4 5 5 5 5 6 9 10 12 13 14 12 11 11 13 13 11 10 11
19 21 22 20 18 17 18 18 17 18 18 17 17 19 20 22 22 21 19 18 17 15 13 14 15 15 14 12 10 11 11 10 10 10 9 8 7 7 4 6 9 10 11 13 13 12 13 13 12 11 9 8 9 9
24 25 23 19 15 18 18 17 16 18 17 17 17 18 19 24 21 18 18 20 19 16 15 15 12 14 14 11 12 12 13 13 11 11 10 7 7 6 6 8 10 11 10 11 12 11 12 13 14 13 10 9 10 10
25 22 19 15 17 17 17 18 18 18 18 17 17 17 17 16 24 20 18 14 16 15 14 15 17 18 17 16 13 13 14 14 14 14 11 9 8 8 9 9 10 10 11 11 10 11 11 12 12 12 11 11 13 13
21 21 17 16 16 17 17 18 19 20 19 18 18 17 18 18 18 15 15 14 14 14 17 17 17 17 16 17 16 15 16 16 16 15 15 15 13 12 11 11 11 9 9 9 9 10 12 14 14 12 13 14 14 12
19 18 16 17 18 18 19 19 19 19 19 19 18 19 18 18 17 15 19 18 18 20 21 21 21 20 20 19 18 17 19 19 18 17 17 16 14 14 13 14 14 12 9 10 11 11 12 14 12 13 14 14 13 12
17 16 16 16 16 17 18 17 17 19 19 18 18 19 18 18 17 18 19 19 20 20 22 22 22 21 20 20 21 20 19 18 18 17 16 15 16 15 13 13 14 14 12 10 10 11 12 12 13 13 14 16 15 13
16 16 16 16 17 17 17 17 17 17 16 17 18 18 17 17 18 17 16 18 20 21 22 22 22 22 21 20 19 19 18 18 17 17 17 16 16 16 15 14 14 14 14 13 12 12 11 12 12 13 15 15 15 15
15 15 16 16 16 16 16 17 16 16 16 16 16 18 17 16 16 14 14 19 21 22 23 23 22 21 21 20 19 17 16 17 18 18 17 19 19 18 17 18 18 17 17 16 16 15 15 13 12 12 13 14 13 14
15 15 15 15 15 15 15 14 16 16 15 15 16 16 16 15 13 13 15 21 24 24 25 23 22 20 19 19 17 17 19 20 18 18 21 22 20 20 22 21 21 20 21 22 21 21 21 20 20 18 13 12 13 13
15 15 16 16 15 14 15 15 15 14 15 16 17 14 13 13 12 15 17 24 26 26 24 23 21 20 19 20 21 22 23 23 24 26 26 24 22 21 21 21 22 23 22 22 22 21 19 19 17 17 16 15 15 15
16 15 16 15 15 16 15 14 14 14 14 14 13 13 13 13 15 16 22 27 27 25 24 23 21 20 21 23 25 26 26 27 28 28 26 25 22 21 21 21 21 20 19 19 18 17 16 15 15 14 14 14 13 13
16 17 16 14 13 13 13 14 14 15 16 16 16 16 16 15 15 20 26 28 28 27 25 24 25 25 26 28 28 27 25 25 25 25 25 23 22 20 19 18 17 17 16 16 15 14 14 14 14 13 12 11 11 13
17 16 15 13 12 13 14 17 17 19 19 17 17 19 19 18 19 23 26 27 27 26 26 27 27 26 28 28 27 26 25 23 22 20 19 18 17 16 14 14 14 14 15 15 13 12 12 12 12 12 12 13 13 13
16 15 14 13 13 14 15 14 15 16 17 17 17 18 19 19 20 22 24 26 25 26 26 26 26 26 26 26 25 24 22 21 20 19 17 15 14 13 13 15 16 17 16 14 12 11 13 14 14 13 13 12 13 13
15 14 14 14 14 14 15 15 15 16 16 15 16 17 18 18 18 19 22 24 25 26 26 26 26 25 25 25 23 22 20 18 16 17 16 15 17 20 19 18 18 18 17 16 15 14 15 15 13 14 15 15 14 12
Wind_Direction
327 327 325 326 327 328 330 329 327 326 326 330 329 341 351 3 14 359 340 356 5 2 10 321 326 352 348 348 4 0 352 327 328 344 0 13 357 2 346 335 318 294 276 260 257 256 253 277 265 253 260 262 271 276
323 324 324 323 323 324 325 326 327 326 326 329 334 359 53 13 8 5 346 343 322 25 344 292 313 323 329 345 11 359 330 322 354 355 13 16 1 353 346 333 318 307 293 277 261 257 268 272 268 268 268 265 263 269
322 322 322 322 321 321 321 321 323 326 327 328 12 88 94 2 356 1 354 340 324 341 299 318 331 302 318 341 15 354 298 335 349 350 14 6 359 3 354 349 325 304 307 287 268 260 259 263 263 270 272 270 268 270
321 322 320 321 323 324 322 319 316 322 324 17 93 109 83 28 13 354 342 309 274 294 313 315 285 296 301 338 348 319 355 334 353 356 2 6 7 22 1 340 334 331 308 271 284 284 257 251 261 268 265 273 272 270
323 322 322 320 322 326 327 324 321 325 2 81 97 89 59 42 360 360 338 273 273 284 316 322 286 290 331 16 15 25 44 40 16 7 15 29 26 15 15 357 348 330 320 284 307 282 253 247 258 263 258 262 266 271
324 321 323 326 325 328 333 316 355 36 90 97 87 62 44 38 7 323 330 271 281 279 296 322 274 291 323 15 33 33 31 35 22 26 45 39 37 36 25 13 32 5 335 290 297 267 249 252 256 256 260 257 271 278
326 327 326 334 330 336 353 50 72 91 84 80 68 53 24 360 297 304 286 277 272 270 262 290 272 271 344 311 334 351 357 24 20 34 54 54 61 56 50 48 66 79 211 258 274 273 251 252 249 256 263 271 271 281
328 329 338 340 6 55 82 88 85 75 72 62 46 31 348 298 286 278 293 287 277 267 260 282 278 282 298 315 347 328 354 351 353 31 57 61 61 72 80 95 80 27 258 236 233 255 238 249 252 261 266 269 269 275
351 7 29 45 62 81 79 76 77 74 57 47 40 301 281 279 280 295 287 290 289 275 272 277 359 2 289 296 314 325 331 8 9 38 49 58 62 89 94 98 88 73 294 268 263 238 268 252 246 256 266 268 267 271
47 59 57 76 76 74 77 75 67 60 51 26 261 295 309 293 285 286 287 278 276 270 285 268 287 313 4 316 338 351 338 5 21 31 34 44 69 72 77 82 77 82 286 305 309 278 265 279 267 262 263 272 269 270
49 61 74 73 73 68 57 55 62 63 273 277 314 324 295 275 298 298 295 290 287 283 287 275 280 305 311 346 346 345 359 3 359 32 35 23 42 68 88 56 66 69 54 332 325 311 301 292 281 280 277 277 275 273
63 70 64 60 51 61 70 67 341 310 338 353 5 343 325 325 324 315 305 304 303 293 299 290 277 285 310 322 328 329 328 342 340 28 15 351 18 67 81 57 41 31 45 11 341 329 321 309 300 292 281 281 282 282
59 53 65 64 70 80 77 19 334 1 37 1 359 357 350 338 336 333 325 317 308 314 310 303 295 281 302 310 318 319 317 316 344 352 343 350 23 96 75 54 42 36 26 30 9 355 334 322 325 317 299 290 288 289
26 52 54 69 85 94 72 17 334 1 6 354 359 359 357 351 336 333 319 315 312 317 309 313 300 290 298 295 307 311 310 326 331 329 339 359 92 118 90 59 46 44 38 27 17 13 9 355 346 346 329 319 298 301
44 45 51 69 90 94 68 5 326 356 360 350 345 345 344 329 328 321 313 310 306 301 308 316 297 287 289 301 305 308 310 318 322 326 338 14 122 123 106 77 55 45 33 30 27 17 9 12 7 358 345 5 359 313
60 43 50 80 88 75 45 9 2 2 3 354 348 342 327 336 329 321 314 309 307 298 303 291 308 284 286 284 303 298 300 308 316 328 337 72 120 119 111 93 72 45 25 11 20 22 23 20 25 18 5 4 339 323
45 51 81 88 82 63 25 22 16 12 5 356 347 349 341 337 326 326 323 317 314 311 297 298 291 298 294 280 288 309 309 318 323 337 15 105 117 115 98 67 31 6 2 3 0 18 26 31 26 31 32 348 317 306
54 77 90 92 83 70 64 51 52 45 37 39 29 13 348 348 336 327 328 325 323 327 314 307 309 309 299 294 311 333 331 338 343 11 37 51 62 64 56 33 26 15 10 4 356 356 13 32 35 21 23 29 354 326
91 99 100 104 111 106 87 77 74 66 66 69 56 31 15 355 354 335 331 336 341 343 347 327 319 306 304 318 355 8 17 32 47 45 40 45 54 55 18 2 351 348 353 356 7 6 1 358 349 339 5 18 360 5
90 103 127 139 139 108 101 101 99 82 77 79 78 70 58 22 340 2 357 344 347 342 324 327 357 37 42 32 11 27 46 53 51 50 40 28 21 38 33 352 1 359 356 355 352 354 1 359 356 353 348 327 325 321
127 140 141 143 113 106 100 93 88 91 93 89 91 88 85 95 37 355 346 338 6 7 23 40 50 51 43 40 21 36 51 61 59 62 59 43 37 44 36 26 13 7 358 353 349 350 350 351 353 349 353 344 334 315
126 114 129 130 112 104 95 93 87 84 84 92 92 91 86 87 97 118 131 355 2 8 41 58 57 45 32 41 43 42 51 54 52 52 51 55 47 45 30 17 16 12 13 17 5 352 341 333 334 339 331 328 327 330
88 102 110 105 85 83 85 93 82 86 79 83 89 82 83 90 100 113 97 117 133 114 91 80 76 74 67 58 56 50 65 66 65 59 52 49 44 44 57 47 37 49 46 5 353 347 342 338 342 333 328 334 333 323
113 108 103 94 97 92 92 88 87 78 78 83 82 80 83 84 100 91 87 105 117 137 104 92 91 83 73 76 94 97 83 88 86 72 61 66 63 48 57 48 45 44 39 31 16 359 349 346 342 341 334 323 321 317
110 113 107 96 97 94 91 83 81 84 88 89 81 79 84 87 84 89 102 126 126 123 115 112 109 103 100 93 96 105 110 103 105 106 99 94 79 58 46 34 33 45 61 56 30 19 6 357 348 341 335 328 314 302
115 115 109 107 101 100 95 78 84 94 91 88 85 80 83 86 89 103 119 141 136 131 128 123 115 115 114 114 113 121 126 128 106 108 116 121 115 105 100 92 87 93 104 97 84 78 67 50 30 9 348 337 323 304
119 121 124 125 110 97 95 96 90 94 90 85 83 83 85 93 112 123 129 138 138 138 135 132 128 129 128 128 132 133 113 118 130 119 110 117 121 117 109 114 117 119 116 115 117 118 117 117 119 134 197 260 268 285
137 131 120 103 102 100 91 90 90 92 85 85 85 98 107 116 128 128 140 142 138 133 134 138 144 144 136 130 123 112 113 110 96 101 109 121 128 130 130 127 123 119 123 124 124 126 131 135 137 141 147 162 185 212
137 129 116 111 100 93 88 91 94 90 85 92 108 113 118 124 129 137 136 131 129 127 133 142 155 143 130 124 129 128 121 118 116 121 124 127 131 133 132 129 130 132 133 135 137 140 143 146 148 150 151 156 166 182
137 122 120 120 115 111 101 97 94 90 87 96 105 115 122 129 138 135 121 128 133 138 143 142 131 127 128 129 132 135 141 139 128 124 125 128 132 136 136 141 141 144 148 151 156 159 155 152 152 157 161 164 167 162
121 121 116 116 117 110 108 103 97 91 95 109 115 112 122 128 130 132 131 134 137 139 136 138 139 138 136 140 140 143 150 157 153 151 148 146 144 148 147 154 152 150 151 153 158 164 168 170 169 173 175 170 168 165
133 131 118 112 109 115 117 121 113 110 115 121 124 125 125 126 125 135 144 139 142 146 147 143 142 145 146 146 149 151 150 152 157 162 164 168 170 175 170 152 145 143 145 150 158 158 157 158 157 158 162 167 168 170
113 106 96 96 101 104 120 117 121 117 118 130 132 133 132 129 130 145 144 151 152 153 153 154 157 157 155 158 160 162 164 166 172 173 177 168 143 133 132 132 137 137 131 127 130 132 134 138 141 141 143 150 159 168